Latrobe, PA

2:24 AM EST on December 16, 2019 (GMT -0500)
Arnold Palmer Regional

Weather History for KLBE - November, 2019

Change the Weather History Date:

Friday, November 15, 2019

  Actual Average Record
Temperature  
Mean Temperature 34 °F -  
Max Temperature 44 °F 48 °F 71 °F (2005)
Min Temperature 23 °F 33 °F 12 °F (1996)
Degree Days  
Heating Degree Days 32    
Moisture  
Dew Point 23 °F    
Average Humidity 70    
Maximum Humidity 86    
Minimum Humidity 43    
Precipitation  
Precipitation 0.00 in - - ()
Sea Level Pressure  
Sea Level Pressure 30.28 in    
Wind  
Wind Speed 3 mph (West)    
Max Wind Speed 17 mph    
Max Gust Speed 18 mph    
Visibility 10 miles    
Events      
Averages and records for this station are not official NWS values.
T = Trace of Precipitation, MM = Missing Value Source: NWS Daily Summary

Daily Weather History Graph

Daily Weather History Graph

Search for Another Location

Airport or City:

Astronomy

Nov. 15, 2019 Rise Set
Actual Time 7:03 AM EST 5:00 PM EST
Civil Twilight 6:33 AM EST 5:29 PM EST
Nautical Twilight 6:01 AM EST 6:02 PM EST
Astronomical Twilight 5:28 AM EST 6:34 PM EST
Moon 7:34 PM EST (11/15) 9:58 AM EST (11/15)
Length of Visible Light 10h 55m
Length of Day
9h 57m
Waning Gibbous, 90% of the Moon is Illuminated
Nov 15
Waning Gibbous
Nov 19
Last Quarter
Nov 26
New
Dec 4
First Quarter
Dec 12
Full

Hourly Weather History & Observations

Time (EST) Temp. Windchill Dew Point Humidity Pressure Visibility Wind Dir Wind Speed Gust Speed Precip Events Conditions
12:15 AM 28.4 °F - 21.2 °F 74% 30.26 in 10.0 mi Calm Calm - N/A   Clear
12:35 AM 28.4 °F - 21.2 °F 74% 30.25 in 10.0 mi Calm Calm - N/A   Clear
12:55 AM 28.4 °F - 21.2 °F 74% 30.26 in 10.0 mi Calm Calm - N/A   Clear
1:35 AM 28.4 °F - 21.2 °F 74% 30.26 in 10.0 mi Calm Calm - N/A   Clear
2:15 AM 26.6 °F - 19.4 °F 74% 30.26 in 10.0 mi Calm Calm - N/A   Clear
2:35 AM 26.6 °F - 23.0 °F 86% 30.27 in 10.0 mi Calm Calm - N/A   Clear
2:55 AM 28.4 °F - 21.2 °F 74% 30.26 in 10.0 mi Calm Calm - N/A   Clear
3:15 AM 26.6 °F - 19.4 °F 74% 30.26 in 10.0 mi Calm Calm - N/A   Clear
3:35 AM 24.8 °F - 21.2 °F 86% 30.26 in 10.0 mi Calm Calm - N/A   Clear
3:55 AM 24.8 °F - 21.2 °F 86% 30.26 in 10.0 mi Calm Calm - N/A   Clear
4:15 AM 28.4 °F - 23.0 °F 80% 30.26 in 10.0 mi Calm Calm - N/A   Clear
4:35 AM 24.8 °F - 21.2 °F 86% 30.26 in 10.0 mi Calm Calm - N/A   Clear
4:55 AM 26.6 °F - 21.2 °F 80% 30.27 in 10.0 mi Calm Calm - N/A   Clear
5:15 AM 26.6 °F - 21.2 °F 80% 30.27 in 10.0 mi Calm Calm - N/A   Clear
5:35 AM 26.6 °F - 21.2 °F 80% 30.28 in 10.0 mi Calm Calm - N/A   Clear
5:55 AM 23.0 °F - 19.4 °F 86% 30.28 in 10.0 mi Calm Calm - N/A   Clear
6:51 AM - - - N/A% 30.29 in 10.0 mi SW 6.9 mph - N/A   Clear
7:51 AM - - - N/A% 30.31 in 10.0 mi SW 6.9 mph - N/A   Clear
8:51 AM 30.2 °F 23.4 °F 24.8 °F 80% 30.31 in 10.0 mi SSW 6.9 mph - N/A   Clear
9:51 AM 37.4 °F 30.3 °F 26.6 °F 65% 30.29 in 10.0 mi SSW 10.4 mph - N/A   Clear
10:51 AM 41.0 °F 36.4 °F 26.6 °F 57% 30.27 in 10.0 mi SW 6.9 mph - N/A   Clear
11:51 AM 42.8 °F 38.6 °F 26.6 °F 53% 30.25 in 10.0 mi SW 6.9 mph - N/A   Clear
12:53 PM 44.6 °F 37.2 °F 24.8 °F 46% 30.23 in 10.0 mi WSW 17.3 mph - N/A   Clear
1:53 PM 44.6 °F 38.8 °F 24.8 °F 46% 30.24 in 10.0 mi WSW 11.5 mph 18.4 mph N/A   Clear
2:53 PM 44.6 °F 38.8 °F 23.0 °F 43% 30.25 in 10.0 mi WSW 11.5 mph 18.4 mph N/A   Clear
3:53 PM 44.6 °F 39.7 °F 23.0 °F 43% 30.25 in 10.0 mi West 9.2 mph 17.3 mph N/A   Clear
4:50 PM 42.8 °F 35.8 °F 23.0 °F 46% 30.23 in 10.0 mi WNW 13.8 mph - N/A   Clear
5:50 PM 39.2 °F 32.0 °F 24.8 °F 56% 30.24 in 10.0 mi WNW 11.5 mph - N/A   Clear
6:50 PM 35.6 °F 28.6 °F 24.8 °F 65% 30.27 in 10.0 mi WNW 9.2 mph - N/A   Clear
7:50 PM 33.8 °F 28.6 °F 24.8 °F 70% 30.29 in 10.0 mi NW 5.8 mph - N/A   Clear
8:50 PM 33.8 °F - 24.8 °F 70% 30.31 in 10.0 mi Calm Calm - N/A   Clear
9:50 PM 33.8 °F - 26.6 °F 75% 30.33 in 10.0 mi Calm Calm - N/A   Mostly Cloudy
10:15 PM 33.8 °F 27.0 °F 26.6 °F 75% 30.33 in 10.0 mi NNW 8.1 mph - N/A   Overcast
10:35 PM 33.8 °F 28.6 °F 26.6 °F 75% 30.33 in 10.0 mi NNW 5.8 mph - N/A   Overcast
10:55 PM 33.8 °F 28.6 °F 26.6 °F 75% 30.34 in 10.0 mi North 5.8 mph - N/A   Overcast
11:15 PM 33.8 °F 26.4 °F 26.6 °F 75% 30.33 in 10.0 mi NNE 9.2 mph - N/A   Overcast
11:35 PM 33.8 °F 27.7 °F 26.6 °F 75% 30.33 in 10.0 mi NNE 6.9 mph - N/A   Overcast